This demonstration page uses our WeatherBlox Daily Observations layout. Learn more.

Left ArrowRight Arrow

53.62937, 11.41316

Hourly Observations for April 7, 2018

Temp ( °F °C ) Dew Point ( °F °C ) Humidity (%) Winds ( mph kmh ) Pressure ( in mb ) Visibility ( mi km ) Precip ( " mm )
7:20 am 07:20 Mostly Sunny 43 6 30 -1 61 61 ESE 7 11 30.06 1018 7 11 N/A
7:50 am 07:50 Mostly Sunny 45 7 30 -1 57 57 SE 6 9 30.06 1018 7 11 N/A
8:20 am 08:20 Mostly Sunny 45 7 30 -1 57 57 SE 8 13 30.06 1018 7 11 N/A
8:50 am 08:50 Mostly Sunny 46 8 30 -1 53 53 SE 9 15 30.03 1017 7 11 N/A
9:20 am 09:20 Mostly Sunny 46 8 30 -1 53 53 SE 10 17 30.03 1017 7 11 N/A
9:50 am 09:50 Mostly Sunny 48 9 30 -1 50 50 SE 10 17 30.03 1017 7 11 N/A
10:20 am 10:20 Mostly Sunny 50 10 30 -1 47 47 SE 10 17 30.00 1016 7 11 N/A
10:50 am 10:50 Mostly Sunny 52 11 30 -1 44 44 SE 12 19 30.00 1016 7 11 N/A
11:20 am 11:20 Mostly Sunny 54 12 32 0 44 44 SSE 9 15 30.00 1016 7 11 N/A
11:50 am 11:50 Mostly Sunny 55 13 32 0 41 41 SE 12 19 29.97 1015 7 11 N/A
12:20 pm 12:20 Mostly Sunny 57 14 32 0 39 39 SE 10 17 29.97 1015 7 11 N/A
12:50 pm 12:50 Mostly Sunny 59 15 32 0 36 36 SSE 10 17 29.97 1015 7 11 N/A
1:20 pm 13:20 Mostly Sunny 59 15 32 0 36 36 SSE 14 22 29.94 1014 7 11 N/A
1:50 pm 13:50 Mostly Sunny 61 16 34 1 36 36 SSE 12 19 29.94 1014 7 11 N/A
2:20 pm 14:20 Mostly Sunny 61 16 34 1 36 36 SE 10 17 29.94 1014 7 11 N/A
2:50 pm 14:50 Mostly Sunny 61 16 34 1 36 36 SSE 12 19 29.94 1014 7 11 N/A
3:20 pm 15:20 Mostly Sunny 63 17 34 1 34 34 SSE 9 15 29.91 1013 7 11 N/A
3:50 pm 15:50 Mostly Sunny 63 17 34 1 34 34 SSE 10 17 29.91 1013 7 11 N/A
4:20 pm 16:20 Mostly Sunny 64 18 36 2 34 34 SSE 10 17 29.91 1013 7 11 N/A
4:50 pm 16:50 Mostly Sunny 64 18 36 2 34 34 SSE 10 17 29.88 1012 7 11 N/A
5:20 pm 17:20 Mostly Sunny 64 18 36 2 34 34 SSE 9 15 29.88 1012 7 11 N/A
5:50 pm 17:50 Mostly Sunny 64 18 36 2 34 34 SSE 9 15 29.88 1012 7 11 N/A
6:20 pm 18:20 Mostly Sunny 64 18 36 2 34 34 SSE 8 13 29.88 1012 7 11 N/A
6:50 pm 18:50 Mostly Sunny 64 18 37 3 37 37 SE 6 9 29.88 1012 7 11 N/A
7:20 pm 19:20 Mostly Sunny 63 17 37 3 39 39 SSE 6 9 29.85 1011 7 11 N/A
7:50 pm 19:50 Mostly Sunny 63 17 36 2 37 37 S 5 7 29.85 1011 7 11 N/A
8:20 pm 20:20 Mostly Clear 61 16 36 2 39 39 S 3 6 29.88 1012 7 11 N/A
8:50 pm 20:50 Mostly Clear 57 14 36 2 44 44 SE 3 6 29.88 1012 7 11 N/A

Powered by AerisWeather